Location: Unspecified
(49.8670°N, 0.0000°E)
Time: 00:41:59
(UTC+00:00)

Vanguard 1 - Pass Details

Date: 29 June 2019
Orbit: 655 x 3829 km, 34.2° (Epoch: 17 August)

Event Time Altitude Azimuth Distance (km) Brightness Sun altitude
Rises 05:52:18 0° 271° (W) 6,933 13.8 15.8°
Reaches altitude 10° 05:58:38 10° 261° (W) 5,345 13.3 16.8°
Maximum altitude 06:08:50 24° 216° (SW) 3,249 12.4 18.4°
Drops below altitude 10° 06:15:37 10° 166° (SSE) 3,417 12.9 19.5°
Sets 06:18:37 0° 152° (SSE) 4,027 13.4 19.9°
